Regional Weather Roundup
Issued by NWS

Home | Current Version | Previous Version | Graphics & Text | Print | Product List | Glossary On
Versions: 1 2 3 4 5 6 7 8 9 10 11 12 13 14 15 16 17 18 19 20 21 22 23 24 25 26 27 28 29 30 31 32 33 34 35 36 37 38 39 40 41 42 43 44 45 46 47 48 49 50
190
ASUS43 KFSD 210010
RWRSD

WEATHER ROUNDUP FOR SOUTH DAKOTA
NATIONAL WEATHER SERVICE SIOUX FALLS SD
700 PM CDT FRI OCT 20 2017

NOTE: "FAIR" INDICATES FEW OR NO CLOUDS BELOW 12,000 FEET WITH NO
SIGNIFICANT WEATHER AND/OR OBSTRUCTIONS TO VISIBILITY.


SDZ001>005-009-010-012>017-210100-
NORTHWEST AND NORTH CENTRAL SOUTH DAKOTA

CITY           SKY/WX    TMP DP  RH WIND       PRES   REMARKS
BUFFALO          N/A     73  35  25 S14       29.20S
FAITH            N/A     75  42  30 S20       29.29S
MOBRIDGE       PTCLDY    72  53  51 S16       29.30R
$$

SDZ012>016-024>037-041>051-057-063-072>074-210100-
SOUTHWEST AND SOUTH CENTRAL SOUTH DAKOTA

CITY           SKY/WX    TMP DP  RH WIND       PRES   REMARKS
RAPID CTY ARPT PTCLDY    70  36  28 W7        29.34R
PIERRE         PTCLDY    69  53  56 SE14G25   29.38R
CUSTER         CLOUDY    66  26  22 SW7G23    29.49R
ELLSWORTH AFB  CLEAR     74  35  24 SW9       29.33S
PHILIP         CLEAR     73  50  44 S15G24    29.33S
PINE RIDGE     CLEAR     72  43  35 S13G22    29.41S
SPEARFISH      FAIR      73  30  20 SW21G29   29.35S
WINNER         FAIR      71  53  52 S13G23    29.43F
$$

SDZ004>011-016>023-039-040-210100-
NORTHEAST SOUTH DAKOTA

CITY           SKY/WX    TMP DP  RH WIND       PRES   REMARKS
ABERDEEN       PTCLDY    71  55  56 S20       29.42R
WATERTOWN      PTCLDY    68  54  60 S23G33    29.52R
BROOKINGS      CLEAR     69  56  62 S18       29.56S
SISSETON         N/A     72  55  55 S18       29.47R
$$

SDZ017-020-022-023-036>040-048>070-210100-
SOUTHEAST SOUTH DAKOTA

CITY           SKY/WX    TMP DP  RH WIND       PRES   REMARKS
SIOUX FALLS    MOCLDY    72  59  63 S22G29    29.59R
HURON          CLOUDY    72  55  55 S15G24    29.46S
CHAMBERLAIN    CLEAR     72  55  55 S13G18    29.44S
MITCHELL       CLOUDY    74  56  53 S18G28    29.50S
YANKTON        CLOUDY    74  58  57 S20G31    29.55S
$$

ABBREVIATIONS USED IN REMARKS
   TC - TEMPERATURE IN CELSIUS
  WCI - WIND CHILL INDEX
   HX - HEAT INDEX
  VSB - VISIBILITY





USA.gov is the U.S. government's official web portal to all federal, state and local government web resources and services.